Temperature
9 10 10 10 10 10 10 10 9 9 8 8 7 7 7 7 7 6 5 5 5 5 5 5 5 6 6 6 6 7 7 7 7 7 7 7 7 7 7 7 7 7 7 7
9 10 10 9 9 10 9 10 9 9 8 8 8 8 7 7 6 6 5 5 4 4 4 4 4 5 5 5 5 6 6 6 6 6 6 6 6 6 6 7 7 7 6 6
8 10 10 8 8 9 9 9 9 9 8 8 8 7 7 7 6 5 5 4 4 4 4 4 4 4 4 4 4 5 5 5 5 5 5 5 5 5 5 5 6 6 6 6
8 9 8 8 8 9 9 9 9 8 8 8 7 7 6 6 5 5 4 4 3 3 3 3 3 3 4 3 3 3 3 3 4 4 4 4 4 4 4 4 4 5 5 5
8 9 9 8 8 8 8 8 8 8 7 7 7 6 5 5 5 4 4 3 3 3 3 3 3 3 3 3 3 3 3 3 3 3 3 3 3 3 3 3 3 3 4 4
9 9 10 8 8 8 8 7 8 8 7 6 6 5 4 4 4 3 3 3 2 2 2 2 2 2 2 2 2 2 2 2 2 2 2 2 2 2 2 2 2 2 2 3
8 8 9 7 7 7 7 7 7 7 7 6 5 4 4 4 3 3 2 2 2 2 2 1 1 1 1 1 1 1 1 1 1 1 1 1 1 1 1 1 1 1 1 2
8 8 7 6 7 7 6 7 7 6 6 5 4 4 3 3 2 2 2 2 1 1 1 1 0 0 0 0 -0 -0 -0 -0 -0 -0 -0 -0 -0 -0 -0 -0 -0 0 0 0
7 7 7 7 7 6 6 6 6 5 5 4 4 3 3 2 2 2 1 1 1 1 1 0 -0 -0 -1 -1 -1 -1 -1 -1 -1 -1 -1 -1 -1 -1 -1 -1 -1 -1 -1 -1
7 7 7 7 6 6 6 5 5 5 4 4 3 3 2 2 1 1 1 1 0 0 -0 -0 -1 -1 -1 -1 -2 -2 -2 -2 -2 -2 -2 -2 -2 -2 -2 -2 -2 -2 -2 -2
6 7 7 6 6 5 5 5 4 4 3 3 3 2 2 1 1 1 0 0 -0 -0 -1 -1 -1 -2 -2 -2 -2 -3 -3 -3 -3 -3 -3 -3 -3 -3 -3 -3 -3 -3 -3 -3
6 7 6 6 6 5 5 4 4 3 3 3 2 2 1 1 0 0 -0 -0 -1 -1 -1 -2 -2 -2 -2 -3 -3 -3 -3 -3 -4 -4 -4 -4 -4 -4 -3 -4 -4 -4 -3 -3
7 7 7 6 5 5 4 3 3 3 3 2 2 1 1 0 0 -0 -1 -1 -1 -2 -2 -2 -2 -3 -3 -3 -4 -4 -4 -4 -4 -4 -5 -5 -5 -5 -5 -4 -4 -4 -4 -4
6 6 5 5 4 4 4 3 3 2 2 2 1 1 0 -0 -0 -1 -1 -2 -2 -2 -2 -3 -3 -3 -4 -4 -4 -5 -5 -5 -5 -5 -5 -5 -6 -6 -6 -6 -5 -4 -4 -4
5 5 5 4 4 3 3 3 2 2 1 1 1 0 -0 -1 -1 -1 -2 -2 -3 -3 -3 -4 -4 -4 -4 -5 -5 -5 -5 -6 -6 -6 -6 -6 -6 -6 -6 -6 -6 -6 -5 -5
4 3 3 3 3 3 3 2 2 1 1 0 0 -0 -1 -1 -2 -2 -2 -3 -3 -4 -4 -4 -4 -5 -5 -6 -6 -6 -6 -6 -6 -6 -6 -6 -7 -7 -7 -7 -7 -6 -6 -6
3 2 2 2 3 2 2 2 1 1 0 -0 -1 -1 -1 -2 -2 -2 -3 -3 -4 -4 -4 -5 -5 -6 -6 -6 -7 -7 -7 -7 -7 -7 -7 -7 -7 -7 -7 -7 -7 -7 -6 -6
4 4 4 4 3 2 2 1 1 0 -0 -1 -1 -2 -2 -2 -3 -3 -4 -4 -4 -5 -5 -6 -6 -7 -7 -7 -7 -7 -8 -8 -8 -8 -8 -8 -8 -7 -7 -7 -7 -7 -7 -6
3 3 3 3 2 2 1 1 0 -0 -1 -1 -2 -2 -3 -3 -4 -4 -5 -5 -5 -6 -6 -7 -7 -7 -7 -8 -8 -8 -8 -8 -8 -8 -8 -8 -8 -8 -8 -7 -7 -7 -7 -7
3 3 2 2 2 1 1 0 -0 -1 -1 -2 -2 -3 -3 -4 -4 -5 -5 -6 -6 -7 -7 -8 -8 -8 -8 -8 -9 -9 -9 -9 -9 -9 -9 -8 -8 -8 -8 -8 -8 -7 -7 -7
2 2 2 1 1 1 0 -0 -1 -1 -2 -2 -3 -3 -4 -4 -5 -5 -6 -6 -7 -8 -8 -8 -8 -9 -9 -9 -9 -9 -9 -9 -9 -9 -9 -9 -9 -8 -8 -8 -8 -8 -7 -7
2 2 1 1 1 0 -0 -1 -1 -2 -2 -3 -4 -4 -5 -5 -6 -6 -6 -7 -8 -8 -9 -9 -9 -9 -10 -10 -10 -10 -10 -10 -10 -10 -10 -9 -9 -9 -9 -9 -8 -8 -8 -7
2 1 1 1 0 -0 -1 -1 -2 -3 -3 -4 -4 -5 -5 -6 -6 -7 -8 -8 -8 -9 -9 -9 -9 -10 -10 -10 -10 -10 -10 -10 -10 -10 -10 -10 -10 -10 -9 -9 -9 -8 -8 -8
1 1 0 0 -1 -1 -1 -2 -3 -3 -4 -4 -5 -6 -6 -6 -7 -7 -8 -8 -9 -9 -9 -9 -10 -10 -10 -10 -10 -10 -11 -11 -11 -11 -10 -10 -10 -10 -10 -9 -9 -9 -9 -8
1 0 0 -0 -1 -1 -2 -3 -3 -4 -4 -5 -5 -6 -6 -7 -8 -8 -8 -9 -9 -9 -10 -10 -10 -10 -10 -11 -11 -11 -11 -11 -11 -11 -11 -10 -10 -10 -10 -10 -9 -9 -9 -8
0 0 -0 -1 -1 -2 -3 -3 -4 -4 -5 -5 -6 -6 -7 -7 -8 -8 -9 -9 -9 -10 -10 -10 -10 -11 -11 -11 -11 -11 -11 -11 -11 -11 -11 -11 -10 -10 -10 -10 -10 -9 -9 -9
-0 -1 -1 -1 -2 -2 -3 -4 -4 -5 -6 -6 -6 -7 -7 -8 -8 -9 -9 -9 -10 -10 -10 -10 -11 -11 -11 -11 -11 -11 -11 -11 -11 -11 -11 -11 -11 -10 -10 -10 -10 -10 -9 -9
Wind_Speed
4 4 4 6 7 8 8 6 5 8 7 6 6 6 6 6 7 7 7 7 8 7 7 8 8 8 8 8 8 8 8 8 7 7 7 6 5 5 4 3 3 2 2 2
1 3 3 5 7 7 7 7 8 9 7 6 7 6 6 5 5 6 6 6 7 7 7 7 7 7 7 7 7 7 7 7 7 7 7 6 6 5 5 4 3 3 3 4
1 2 2 3 4 5 4 5 4 4 5 7 6 5 4 4 4 5 5 5 5 5 6 6 6 6 6 6 6 7 7 7 7 7 7 7 7 6 6 5 4 4 4 4
1 2 1 2 2 3 3 4 5 6 6 6 6 5 4 5 5 5 5 5 5 5 5 5 5 5 6 6 6 6 6 7 7 7 7 7 7 7 7 6 5 5 5 5
1 1 3 4 2 1 1 2 3 5 6 6 5 3 3 5 6 5 5 4 4 4 4 4 5 5 6 6 6 7 7 7 7 8 8 8 7 7 7 6 7 6 6 6
2 2 1 4 4 2 1 1 3 5 5 5 3 1 2 4 5 5 4 3 3 4 4 4 5 5 5 6 6 7 7 8 8 8 8 8 8 7 7 6 7 7 7 7
1 2 1 4 3 1 1 3 4 4 5 4 2 2 3 4 4 3 2 2 3 3 3 4 4 4 5 6 6 6 7 7 8 8 8 8 8 7 7 7 7 7 8 7
1 2 3 4 3 1 2 4 4 4 5 4 4 4 4 3 2 1 1 2 3 3 4 4 4 4 6 6 6 6 7 8 8 8 8 8 8 8 7 7 8 8 8 8
1 2 3 3 3 4 3 4 4 4 5 5 3 2 2 1 0 1 2 2 3 4 5 5 5 5 6 7 6 7 7 8 8 9 8 8 8 8 7 6 7 7 7 8
3 3 5 5 5 4 4 4 5 5 4 3 2 1 1 0 1 2 2 3 3 4 6 6 6 6 7 7 6 7 8 8 8 8 8 8 7 7 7 6 7 8 8 8
4 3 4 5 6 6 5 5 5 4 3 2 1 0 1 1 2 2 3 3 4 5 7 8 7 7 7 7 7 7 8 8 8 8 8 8 8 7 8 7 9 10 8 8
5 4 4 4 6 7 7 5 5 4 3 2 1 1 1 2 2 3 4 4 5 6 7 8 8 8 8 7 7 8 8 8 7 7 7 7 8 9 11 12 16 17 17 16
3 4 4 6 6 6 5 5 4 3 3 1 1 1 2 2 3 4 5 6 7 7 8 8 9 9 9 8 8 8 8 9 8 8 8 8 8 8 10 11 14 16 17 18
6 6 4 4 5 5 5 5 4 2 1 1 1 1 2 3 4 6 6 7 7 8 9 9 9 10 9 8 8 8 9 10 10 8 8 8 8 8 8 10 11 9 12 16
6 4 5 6 7 6 5 4 3 2 2 1 1 2 3 4 6 7 7 7 8 8 9 9 10 10 9 8 9 10 9 8 8 8 8 9 9 9 9 10 10 10 9 10
7 6 6 7 7 6 5 5 4 3 2 1 2 2 3 5 6 7 8 7 8 9 9 9 10 10 9 9 10 9 9 13 12 9 9 9 9 9 9 9 10 9 9 8
10 8 7 7 7 6 5 4 3 2 1 1 2 3 4 5 7 8 8 7 8 9 9 10 10 9 9 9 10 9 9 10 14 11 9 9 9 9 9 9 9 10 9 10
8 8 8 7 7 6 4 3 2 1 1 1 2 3 5 6 7 9 9 9 9 10 10 9 8 10 10 10 10 9 9 9 9 10 10 9 10 9 9 10 10 11 9 9
7 8 8 7 6 5 4 3 2 1 0 1 2 4 5 6 7 8 8 9 10 11 9 8 15 12 11 11 13 9 9 10 11 10 10 13 12 9 9 9 9 9 9 8
8 8 8 7 6 5 4 3 2 1 0 1 3 4 6 7 7 8 8 8 8 7 8 11 11 10 10 11 14 9 10 10 11 11 10 10 9 9 9 9 9 9 8 8
8 8 8 7 5 4 3 3 2 1 1 2 3 5 6 7 7 7 8 9 8 8 9 14 10 9 10 12 14 9 10 10 11 10 10 10 10 9 9 8 8 9 8 8
7 7 7 6 5 3 2 2 1 0 2 2 3 4 6 7 8 8 7 7 7 13 10 8 8 13 16 17 9 9 10 10 10 9 9 9 9 9 9 9 8 8 8 7
6 6 6 5 4 3 2 1 1 1 2 3 4 5 5 6 6 7 8 6 7 14 12 8 14 20 21 12 8 9 10 10 10 9 9 9 9 9 8 9 8 8 7 7
6 6 5 4 4 3 1 0 0 1 3 4 4 4 4 5 5 4 5 12 16 16 10 14 20 20 18 9 8 9 9 9 9 9 9 9 8 8 8 8 8 7 7 7
6 6 5 4 3 2 1 0 1 2 2 3 4 4 3 3 5 6 7 8 14 15 9 13 19 19 12 8 9 9 9 9 10 10 8 8 7 7 7 7 7 7 6 6
5 5 4 4 3 2 1 0 1 2 2 3 3 3 4 4 5 6 6 7 10 13 10 8 9 12 8 8 9 10 9 10 10 9 9 8 8 8 7 7 8 7 6 6
5 4 3 3 2 2 1 1 1 2 2 2 4 4 4 5 5 6 7 7 8 8 8 8 7 8 8 8 9 9 9 9 9 8 8 8 7 7 7 8 7 6 6 6
Wind_Direction
62 59 42 39 28 26 31 33 82 111 115 127 117 107 98 92 86 76 65 56 51 47 42 37 31 25 22 17 11 6 7 8 4 356 354 354 350 342 335 325 303 275 252 230
64 84 71 51 31 36 36 47 90 102 94 107 107 98 92 88 83 73 63 54 48 43 38 32 27 18 13 7 1 359 1 359 353 351 349 346 340 333 325 314 296 274 251 232
17 304 285 48 24 30 53 43 63 94 113 119 113 106 100 94 92 82 66 55 48 39 30 22 18 12 4 355 351 352 351 350 350 349 344 338 333 328 319 307 295 277 261 246
325 336 28 116 46 34 67 57 57 84 103 110 108 105 90 81 74 67 55 41 34 25 17 12 9 5 355 348 348 347 346 346 345 341 334 328 324 320 315 309 297 285 273 260
340 301 167 142 148 44 50 97 99 114 110 98 95 99 84 74 68 64 57 46 30 15 2 358 358 358 350 342 343 342 340 338 334 330 324 321 315 309 305 300 294 287 279 266
338 330 343 132 118 62 359 163 121 119 124 123 129 160 151 89 72 61 50 38 18 358 352 349 347 350 337 327 329 327 324 322 319 315 311 307 303 298 293 287 282 281 275 265
293 287 96 120 133 158 175 167 127 113 118 125 111 101 102 82 71 61 43 17 359 344 333 324 327 325 311 309 306 303 307 307 306 304 300 296 294 292 291 286 282 276 272 265
236 252 236 150 157 171 143 119 112 104 102 102 98 94 88 81 66 36 2 341 337 322 306 300 301 300 295 293 293 300 304 301 299 297 297 297 293 293 290 287 285 281 277 273
273 200 136 156 119 99 99 116 109 105 99 107 113 121 116 105 344 319 319 319 319 310 302 299 298 297 294 293 299 303 301 298 297 297 295 293 290 290 289 284 282 282 277 275
279 219 167 166 146 131 112 110 102 101 104 111 125 125 121 284 291 299 305 308 309 306 300 298 299 297 290 294 298 297 294 294 294 296 296 294 292 287 284 283 283 283 280 277
254 218 161 187 177 158 140 124 117 111 108 110 114 121 296 291 294 301 305 306 306 299 294 294 298 297 296 295 295 292 291 291 292 291 291 292 290 284 283 274 278 286 284 281
221 191 171 169 157 149 150 156 152 144 138 122 129 264 299 296 301 308 307 305 299 293 292 296 299 297 295 293 290 289 292 293 293 292 290 289 290 291 284 283 289 290 287 284
149 90 92 111 123 134 145 144 139 145 159 181 230 281 299 299 303 302 300 298 295 295 296 297 296 294 293 293 292 286 284 288 290 290 289 289 288 289 294 295 288 288 289 290
129 123 131 154 147 136 130 125 121 124 144 189 237 304 302 298 300 299 297 298 299 299 297 295 294 293 294 296 294 287 284 285 286 283 283 285 285 284 285 290 296 293 291 291
163 156 141 131 127 128 125 129 146 190 210 232 260 281 289 293 295 296 299 301 300 295 294 295 296 296 301 303 299 293 290 285 282 281 281 282 284 284 282 282 284 288 291 291
156 138 133 144 154 155 158 173 194 213 214 238 271 285 294 296 296 297 298 299 300 298 299 299 296 296 304 305 301 296 290 288 290 286 284 282 281 281 280 280 282 283 284 286
150 168 176 180 180 180 182 184 188 197 212 255 287 309 311 306 301 300 302 304 300 296 296 295 296 303 309 307 302 297 294 295 296 293 284 282 282 281 281 281 281 281 281 284
168 169 167 165 166 167 168 161 155 158 219 286 324 316 305 300 298 301 307 314 313 306 300 299 309 318 315 310 305 300 298 296 295 292 290 287 284 280 280 280 281 281 283 285
141 139 138 135 136 142 148 155 158 157 123 336 306 296 295 294 296 302 310 312 309 306 308 318 325 326 315 310 312 303 301 298 296 294 293 291 290 284 281 281 282 282 283 282
130 127 124 118 113 122 132 132 122 115 328 313 301 300 302 303 306 308 308 301 293 295 309 321 324 316 312 309 312 306 303 299 297 296 295 292 290 289 287 285 286 287 286 282
139 135 132 130 125 122 128 130 137 227 291 295 291 295 299 303 307 308 307 306 305 313 323 324 324 314 313 315 315 310 306 303 301 300 299 298 296 294 293 292 292 293 292 291
144 141 142 140 138 136 131 134 146 253 303 302 298 298 303 307 310 308 297 294 311 324 328 318 315 315 321 322 317 311 309 308 306 305 303 303 302 301 300 299 298 297 296 294
144 144 144 144 147 147 141 142 145 269 288 292 294 298 300 301 305 308 311 314 322 323 325 313 317 321 325 327 319 314 311 310 309 307 305 304 303 303 302 301 301 301 300 300
139 138 136 130 127 131 152 193 254 273 276 282 284 289 294 303 304 294 298 318 324 322 320 317 324 327 331 329 317 315 315 314 311 309 307 305 305 305 305 304 303 303 302 303
139 136 137 140 148 168 179 178 311 296 298 300 302 303 298 291 297 308 311 314 320 323 319 321 325 329 331 320 319 318 317 314 313 314 313 313 311 309 307 306 307 308 308 308
146 149 151 155 155 149 144 166 279 298 307 311 313 314 310 307 305 307 310 313 315 321 322 315 317 322 321 319 321 320 319 318 319 319 317 317 315 314 313 315 314 313 309 307
139 142 143 147 147 143 146 182 259 288 303 304 308 309 312 314 312 315 317 317 318 317 315 315 316 317 316 318 318 318 318 318 318 317 317 316 314 313 314 315 313 311 311 311
Height
1454 1452 1451 1452 1450 1448 1448 1446 1453 1459 1463 1467 1468 1470 1472 1473 1474 1475 1475 1475 1474 1473 1473 1472 1471 1470 1469 1468 1467 1466 1465 1464 1463 1462 1461 1460 1459 1459 1459 1458 1458 1458 1458 1458
1458 1453 1453 1456 1455 1453 1453 1452 1455 1460 1466 1467 1469 1471 1473 1474 1475 1476 1476 1476 1475 1475 1473 1472 1472 1471 1470 1469 1468 1466 1465 1463 1462 1460 1459 1457 1456 1456 1455 1455 1454 1454 1454 1454
1460 1453 1453 1461 1461 1459 1459 1459 1459 1462 1467 1468 1470 1472 1474 1475 1476 1477 1477 1477 1476 1475 1474 1473 1472 1471 1470 1468 1467 1465 1463 1461 1460 1458 1457 1455 1453 1452 1451 1451 1450 1449 1449 1449
1461 1458 1467 1467 1462 1461 1461 1462 1462 1464 1466 1469 1471 1473 1475 1476 1476 1477 1477 1476 1476 1475 1474 1473 1472 1470 1469 1467 1465 1463 1461 1459 1457 1455 1453 1452 1450 1448 1447 1446 1445 1445 1444 1444
1462 1461 1458 1465 1462 1462 1463 1464 1464 1466 1468 1470 1472 1474 1476 1476 1477 1477 1477 1476 1475 1475 1473 1472 1470 1468 1466 1465 1462 1460 1458 1456 1454 1452 1450 1448 1446 1444 1443 1441 1440 1439 1439 1438
1460 1461 1458 1464 1462 1462 1465 1467 1466 1466 1468 1471 1472 1475 1477 1476 1476 1476 1475 1475 1474 1473 1472 1470 1468 1466 1464 1462 1460 1458 1455 1453 1451 1449 1446 1444 1442 1440 1438 1436 1435 1434 1433 1432
1463 1462 1459 1462 1462 1464 1468 1468 1466 1467 1468 1470 1472 1474 1475 1474 1475 1475 1474 1473 1472 1471 1469 1468 1466 1464 1462 1459 1457 1455 1453 1450 1448 1445 1442 1440 1437 1435 1433 1431 1429 1427 1426 1425
1462 1464 1466 1462 1462 1464 1466 1465 1465 1467 1468 1470 1471 1472 1473 1473 1473 1473 1472 1471 1470 1468 1467 1465 1463 1461 1458 1456 1454 1451 1449 1446 1443 1441 1438 1435 1432 1430 1428 1426 1423 1421 1420 1418
1462 1464 1461 1460 1461 1462 1463 1464 1465 1466 1467 1469 1470 1470 1471 1471 1471 1470 1469 1468 1467 1465 1463 1462 1460 1458 1455 1452 1450 1447 1444 1441 1438 1435 1432 1430 1427 1424 1422 1420 1418 1415 1414 1412
1460 1457 1458 1459 1460 1461 1462 1463 1464 1465 1466 1467 1468 1468 1469 1469 1468 1467 1466 1465 1463 1461 1459 1457 1455 1453 1451 1448 1445 1442 1438 1436 1433 1429 1426 1424 1421 1419 1416 1414 1411 1409 1407 1405
1458 1456 1456 1457 1458 1459 1460 1461 1462 1463 1464 1465 1466 1466 1466 1466 1465 1464 1463 1461 1459 1457 1455 1453 1450 1448 1445 1443 1439 1436 1433 1430 1427 1424 1420 1417 1415 1413 1410 1408 1406 1403 1401 1398
1455 1451 1453 1454 1455 1456 1458 1459 1460 1461 1462 1463 1463 1463 1463 1463 1462 1461 1459 1457 1455 1453 1450 1448 1445 1442 1440 1437 1434 1430 1427 1424 1420 1417 1414 1411 1407 1404 1402 1401 1398 1396 1394 1392
1448 1449 1450 1451 1453 1454 1456 1457 1458 1459 1460 1461 1461 1461 1461 1460 1458 1457 1455 1453 1451 1448 1446 1443 1440 1437 1434 1431 1428 1424 1421 1417 1414 1411 1407 1404 1401 1398 1394 1391 1390 1388 1386 1384
1446 1447 1449 1450 1452 1453 1454 1455 1456 1457 1458 1458 1458 1458 1457 1456 1455 1453 1451 1449 1446 1443 1440 1437 1434 1431 1428 1425 1421 1418 1415 1411 1408 1404 1401 1398 1395 1392 1388 1385 1381 1378 1378 1376
1443 1445 1446 1448 1449 1451 1452 1453 1454 1455 1456 1456 1456 1455 1454 1452 1451 1449 1447 1444 1441 1438 1435 1432 1428 1425 1422 1418 1415 1411 1408 1404 1401 1398 1394 1391 1388 1385 1382 1379 1376 1372 1370 1369
1440 1442 1444 1445 1447 1448 1450 1451 1452 1452 1453 1453 1452 1451 1450 1449 1447 1445 1442 1439 1436 1433 1430 1426 1422 1419 1416 1412 1408 1404 1401 1397 1394 1391 1388 1384 1381 1379 1376 1373 1370 1367 1365 1363
1436 1438 1441 1442 1444 1446 1447 1448 1449 1450 1450 1450 1449 1448 1446 1445 1442 1440 1437 1435 1431 1428 1425 1421 1417 1413 1409 1406 1402 1398 1394 1390 1387 1384 1381 1378 1375 1372 1370 1367 1364 1362 1359 1358
1433 1436 1438 1440 1442 1444 1445 1446 1447 1447 1447 1446 1446 1444 1442 1440 1438 1435 1432 1429 1425 1422 1419 1415 1411 1407 1403 1399 1396 1392 1388 1384 1381 1378 1375 1372 1369 1366 1364 1361 1359 1356 1354 1352
1431 1434 1436 1438 1440 1442 1443 1444 1444 1444 1444 1443 1442 1440 1438 1436 1434 1431 1428 1424 1420 1416 1413 1409 1405 1401 1397 1393 1390 1386 1382 1379 1375 1372 1369 1366 1363 1360 1358 1355 1353 1350 1348 1347
1429 1432 1434 1436 1438 1440 1441 1441 1441 1441 1441 1440 1438 1436 1434 1432 1430 1426 1423 1420 1416 1412 1408 1404 1400 1396 1391 1388 1384 1380 1377 1373 1370 1366 1363 1361 1358 1355 1353 1351 1348 1346 1344 1342
1428 1431 1433 1435 1437 1438 1438 1439 1439 1438 1437 1436 1434 1432 1430 1428 1425 1422 1418 1414 1412 1408 1404 1399 1395 1391 1386 1383 1379 1376 1372 1368 1365 1362 1359 1356 1353 1350 1348 1346 1344 1341 1339 1337
1427 1430 1432 1433 1435 1436 1436 1436 1436 1435 1434 1433 1431 1429 1426 1423 1421 1418 1415 1411 1407 1403 1399 1395 1390 1386 1383 1379 1375 1371 1367 1364 1360 1357 1354 1351 1349 1346 1344 1341 1339 1337 1335 1333
1426 1429 1430 1432 1433 1433 1433 1433 1433 1432 1431 1429 1427 1425 1422 1420 1417 1413 1410 1407 1403 1399 1395 1391 1387 1383 1379 1374 1370 1366 1363 1359 1356 1353 1350 1347 1345 1342 1340 1338 1335 1333 1331 1329
1425 1427 1429 1430 1431 1431 1431 1430 1430 1429 1427 1426 1424 1421 1419 1416 1413 1410 1406 1403 1399 1395 1391 1387 1383 1379 1375 1371 1367 1363 1359 1356 1352 1349 1346 1344 1341 1339 1336 1334 1331 1329 1328 1326
1424 1425 1427 1428 1428 1428 1428 1427 1426 1425 1424 1422 1420 1418 1415 1412 1409 1406 1402 1399 1395 1391 1387 1383 1379 1375 1371 1367 1363 1360 1356 1352 1349 1346 1343 1340 1337 1335 1332 1330 1328 1326 1324 1323
1422 1423 1424 1425 1425 1425 1424 1424 1423 1421 1420 1418 1416 1414 1411 1409 1405 1402 1399 1395 1391 1387 1384 1380 1376 1372 1368 1364 1360 1356 1353 1349 1346 1343 1340 1337 1334 1332 1329 1327 1325 1323 1321 1320
1419 1420 1421 1421 1421 1421 1421 1420 1419 1418 1416 1414 1412 1410 1407 1405 1402 1398 1395 1391 1388 1384 1380 1377 1373 1369 1365 1361 1357 1354 1350 1346 1343 1340 1337 1334 1331 1329 1327 1324 1322 1320 1319 1317